Weather History for KTFP - February, 2014

Change the Weather History Date:

Wednesday, February 26, 2014

  Actual Average Record
Temperature  
Mean Temperature 54 °F -  
Max Temperature 69 °F - - ()
Min Temperature 40 °F - - ()
Degree Days  
Heating Degree Days 10    
Growing Degree Days 4 (Base 50)    
Moisture  
Dew Point 48 °F    
Average Humidity 91    
Maximum Humidity 99    
Minimum Humidity 79    
Precipitation  
Precipitation 0.20 in - - ()
Sea Level Pressure  
Sea Level Pressure 30.07 in    
Wind  
Wind Speed 14 mph (North)    
Max Wind Speed 26 mph    
Max Gust Speed 36 mph    
Visibility 8 miles    
Events Fog , Rain    
T = Trace of Precipitation, MM = Missing Value Source: NWS Daily Summary

Daily Weather History Graph

Daily Weather History Graph

Search for Another Location

Airport or City:

Trip Planner

Search our weather history database for the weather conditions in past years. The results will help you decide how hot, cold, wet, or windy it might be!

Date:

Astronomy

Feb. 26, 2014 Rise Set
Actual Time 6:56 AM CST 6:27 PM CST
Civil Twilight 6:32 AM CST 6:51 PM CST
Nautical Twilight 6:05 AM CST 7:18 PM CST
Astronomical Twilight 5:38 AM CST 7:45 PM CST
Moon 4:32 AM CST (2/26) 3:52 PM CST (2/26)
Length of Visible Light 12h 18m
Length of Day
11h 31m
Waning Crescent, 10% of the Moon is Illuminated
Feb 26
Waning Crescent
Mar 1
New
Mar 8
First Quarter
Mar 16
Full
Mar 23
Last Quarter

Hourly Weather History & Observations

Time (CST) Temp. Windchill Dew Point Humidity Pressure Visibility Wind Dir Wind Speed Gust Speed Precip Events Conditions
12:15 AM 69.6 °F - 69.1 °F 98% 29.92 in 0.8 mi Calm Calm - N/A   Overcast
12:35 AM 69.8 °F - 69.1 °F 98% 29.91 in 0.8 mi Calm Calm - N/A   Overcast
12:55 AM 69.8 °F - 69.1 °F 98% 29.91 in 0.8 mi Calm Calm - N/A   Overcast
1:15 AM 69.8 °F - 69.1 °F 98% 29.91 in 0.8 mi Calm Calm - N/A   Overcast
1:35 AM 69.8 °F - 69.3 °F 98% 29.90 in 0.5 mi Calm Calm - N/A Fog Fog
1:55 AM 69.8 °F - 69.4 °F 99% 29.89 in 0.5 mi Calm Calm - N/A Fog Fog
2:15 AM 69.8 °F - 69.4 °F 99% 29.89 in 0.2 mi North 4.6 mph - N/A Fog Fog
2:35 AM 69.6 °F - 69.1 °F 98% 29.90 in 0.5 mi North 16.1 mph 21.9 mph N/A Fog Fog
2:55 AM 65.8 °F - 65.5 °F 99% 29.91 in 2.0 mi North 16.1 mph 21.9 mph 0.01 in Rain Rain
3:15 AM 62.4 °F - 62.2 °F 99% 29.92 in 5.0 mi North 15.0 mph - 0.04 in Rain Heavy Rain
3:35 AM 60.8 °F - 60.4 °F 99% 29.92 in 5.0 mi North 16.1 mph - 0.06 in   Overcast
3:55 AM 59.7 °F - 59.4 °F 99% 29.92 in 5.0 mi North 17.3 mph 23.0 mph 0.07 in Rain Rain
4:10 AM 58.6 °F - 58.3 °F 99% 29.93 in 5.0 mi North 18.4 mph - N/A Rain Rain
4:35 AM 57.2 °F - 57.0 °F 99% 29.93 in 5.0 mi North 23.0 mph 28.8 mph 0.02 in   Overcast
4:55 AM 56.5 °F - 56.3 °F 99% 29.94 in 7.0 mi North 26.5 mph 32.2 mph 0.02 in   Overcast
5:15 AM 56.3 °F - 55.9 °F 99% 29.95 in 10.0 mi North 23.0 mph 29.9 mph N/A   Overcast
5:35 AM 56.3 °F - 55.4 °F 97% 29.96 in 5.0 mi North 18.4 mph 29.9 mph N/A   Overcast
5:55 AM 55.6 °F - 54.7 °F 97% 29.97 in 7.0 mi NNE 24.2 mph 29.9 mph N/A   Overcast
6:15 AM 55.4 °F - 54.1 °F 96% 29.98 in 10.0 mi NNE 26.5 mph 33.4 mph N/A   Overcast
6:35 AM 54.9 °F - 52.9 °F 93% 29.99 in 10.0 mi NNE 26.5 mph 32.2 mph N/A   Overcast
6:55 AM 54.1 °F - 52.2 °F 93% 30.00 in 10.0 mi North 26.5 mph 33.4 mph N/A   Overcast
7:15 AM 53.6 °F - 51.3 °F 92% 30.01 in 10.0 mi North 26.5 mph 32.2 mph N/A   Overcast
7:35 AM 53.1 °F - 50.7 °F 92% 30.02 in 10.0 mi NNE 24.2 mph 35.7 mph N/A   Overcast
7:55 AM 52.9 °F - 50.4 °F 91% 30.05 in 10.0 mi North 20.7 mph 26.5 mph N/A   Overcast
8:15 AM 51.8 °F - 49.6 °F 92% 30.05 in 10.0 mi North 25.3 mph 31.1 mph N/A   Overcast
8:35 AM 50.9 °F - 48.6 °F 92% 30.07 in 10.0 mi North 23.0 mph 31.1 mph N/A   Light Drizzle
8:50 AM 50.5 °F - 48.4 °F 92% 30.08 in 10.0 mi NNE 21.9 mph 27.6 mph N/A   Overcast
9:15 AM 50.2 °F - 47.7 °F 91% 30.10 in 10.0 mi North 23.0 mph 27.6 mph N/A   Overcast
9:35 AM 49.8 °F - 47.1 °F 90% 30.07 in 10.0 mi NNE 24.2 mph 33.4 mph N/A   Overcast
9:55 AM 49.3 °F - 47.1 °F 92% 30.11 in 7.0 mi North 19.6 mph 28.8 mph N/A   Overcast
10:15 AM 49.1 °F - 46.9 °F 92% 30.12 in 7.0 mi North 23.0 mph 29.9 mph N/A Rain Light Rain
10:35 AM 48.4 °F - 46.8 °F 94% 30.14 in 5.0 mi North 21.9 mph 29.9 mph N/A Rain Rain
10:55 AM 47.8 °F - 46.2 °F 94% 30.12 in 10.0 mi North 24.2 mph 31.1 mph N/A   Overcast
11:15 AM 48.0 °F - 45.9 °F 92% 30.12 in 10.0 mi North 18.4 mph 24.2 mph N/A   Overcast
11:35 AM 47.5 °F - 45.7 °F 93% 30.13 in 10.0 mi North 21.9 mph 26.5 mph N/A   Overcast
11:55 AM 47.1 °F - 45.5 °F 94% 30.12 in 1.5 mi NNE 17.3 mph 26.5 mph 0.09 in Rain Heavy Rain
12:15 PM 47.3 °F - 45.9 °F 95% 30.12 in 7.0 mi North 17.3 mph 23.0 mph N/A Rain Light Rain
12:35 PM 47.8 °F - 45.7 °F 92% 30.12 in 10.0 mi North 24.2 mph 28.8 mph N/A   Overcast
12:55 PM 48.0 °F - 45.1 °F 90% 30.12 in 10.0 mi North 17.3 mph 24.2 mph N/A   Overcast
1:15 PM 47.7 °F - 45.0 °F 90% 30.11 in 10.0 mi North 18.4 mph - N/A   Overcast
1:35 PM 47.3 °F - 44.1 °F 88% 30.10 in 10.0 mi North 20.7 mph 26.5 mph N/A   Overcast
1:55 PM 46.8 °F - 43.5 °F 88% 30.11 in 5.0 mi North 17.3 mph 21.9 mph N/A Rain Rain
2:15 PM 46.4 °F 39.5 °F 43.7 °F 90% 30.09 in 10.0 mi North 17.3 mph - N/A Rain Light Rain
2:35 PM 46.8 °F - 43.3 °F 88% 30.09 in 10.0 mi North 17.3 mph 24.2 mph N/A   Overcast
2:55 PM 46.6 °F - 43.0 °F 87% 30.11 in 10.0 mi North 18.4 mph 23.0 mph N/A   Overcast
3:15 PM 46.2 °F 38.3 °F 43.0 °F 88% 30.12 in 10.0 mi North 21.9 mph - N/A   Overcast
3:35 PM 45.9 °F 39.1 °F 43.3 °F 91% 30.10 in 7.0 mi North 16.1 mph 26.5 mph N/A Rain Rain
3:55 PM 45.9 °F 38.5 °F 43.7 °F 92% 30.10 in 7.0 mi North 18.4 mph 24.2 mph N/A   Overcast
4:15 PM 46.0 °F 38.8 °F 43.5 °F 91% 30.11 in 10.0 mi North 18.4 mph 24.2 mph N/A   Overcast
4:35 PM 46.0 °F 37.6 °F 43.0 °F 89% 30.13 in 10.0 mi North 24.2 mph 28.8 mph 0.01 in   Overcast
4:55 PM 45.5 °F 37.6 °F 41.4 °F 85% 30.12 in 10.0 mi North 20.7 mph 27.6 mph 0.01 in   Overcast
5:15 PM 45.1 °F 37.6 °F 40.8 °F 85% 30.12 in 10.0 mi North 18.4 mph 23.0 mph N/A   Overcast
5:35 PM 44.8 °F 36.9 °F 39.9 °F 83% 30.13 in 10.0 mi North 19.6 mph 25.3 mph N/A   Overcast
5:55 PM 44.8 °F 37.1 °F 39.2 °F 81% 30.12 in 10.0 mi North 18.4 mph 23.0 mph N/A   Mostly Cloudy
6:15 PM 44.6 °F 38.4 °F 39.2 °F 81% 30.13 in 10.0 mi North 12.7 mph - N/A   Overcast
6:35 PM 44.1 °F 35.9 °F 38.5 °F 81% 30.12 in 10.0 mi North 19.6 mph - N/A   Light Drizzle
6:55 PM 43.7 °F 35.7 °F 38.8 °F 83% 30.14 in 10.0 mi NNW 18.4 mph - N/A   Overcast
7:15 PM 43.2 °F 35.9 °F 38.7 °F 84% 30.15 in 10.0 mi North 15.0 mph - N/A   Overcast
7:35 PM 43.0 °F 35.1 °F 38.1 °F 83% 30.16 in 10.0 mi North 17.3 mph 24.2 mph N/A   Mostly Cloudy
7:55 PM 42.3 °F 34.8 °F 36.1 °F 79% 30.18 in 10.0 mi North 15.0 mph - N/A   Mostly Cloudy
8:15 PM 41.7 °F 33.1 °F 36.3 °F 81% 30.18 in 10.0 mi North 18.4 mph - N/A   Light Drizzle
8:35 PM 41.2 °F 33.7 °F 37.8 °F 88% 30.20 in 10.0 mi North 13.8 mph - N/A   Light Drizzle
8:55 PM 41.0 °F 33.1 °F 37.9 °F 89% 30.19 in 10.0 mi North 15.0 mph - N/A Rain Light Rain
9:15 PM 41.0 °F 32.8 °F 37.0 °F 86% 30.20 in 10.0 mi North 16.1 mph 21.9 mph N/A   Light Drizzle
9:35 PM 40.8 °F 33.3 °F 35.8 °F 82% 30.20 in 10.0 mi North 13.8 mph - N/A   Overcast
9:55 PM 40.6 °F 32.7 °F 35.4 °F 82% 30.20 in 10.0 mi North 15.0 mph - N/A   Light Drizzle
10:15 PM 40.6 °F 34.3 °F 35.2 °F 81% 30.21 in 10.0 mi North 10.4 mph - N/A Rain Rain
10:35 PM 40.5 °F 33.2 °F 35.6 °F 83% 30.21 in 10.0 mi North 12.7 mph - N/A   Light Drizzle
10:55 PM 40.5 °F 33.6 °F 36.0 °F 84% 30.20 in 10.0 mi North 11.5 mph - N/A   Scattered Clouds
11:15 PM 41.0 °F 34.7 °F 36.0 °F 82% 30.19 in 10.0 mi North 10.4 mph - N/A   Clear
11:35 PM 41.0 °F 34.7 °F 35.4 °F 81% 30.18 in 10.0 mi North 10.4 mph - N/A   Clear
11:55 PM 41.0 °F 34.7 °F 35.1 °F 79% 30.18 in 10.0 mi North 10.4 mph - N/A   Clear